West Bend, WI

4:34 AM CST on November 25, 2017 (GMT -0600)
West Bend Municipal

Weather History for KETB - May, 2014

Change the Weather History Date:

Thursday, May 8, 2014

  Actual Average Record
Temperature  
Mean Temperature 60 °F -  
Max Temperature 78 °F 65 °F 86 °F (1926)
Min Temperature 42 °F 43 °F 28 °F (1947)
Degree Days  
Heating Degree Days 5    
Growing Degree Days 10 (Base 50)    
Moisture  
Dew Point 51 °F    
Average Humidity 68    
Maximum Humidity 93    
Minimum Humidity 47    
Precipitation  
Precipitation 0.00 in - - ()
Sea Level Pressure  
Sea Level Pressure 29.79 in    
Wind  
Wind Speed 4 mph (ESE)    
Max Wind Speed 16 mph    
Max Gust Speed 26 mph    
Visibility 8 miles    
Events      
Averages and records for this station are not official NWS values.
T = Trace of Precipitation, MM = Missing Value Source: NWS Daily Summary

Daily Weather History Graph

Daily Weather History Graph

Search for Another Location

Airport or City:

Trip Planner

Search our weather history database for the weather conditions in past years. The results will help you decide how hot, cold, wet, or windy it might be!

Date:

Astronomy

May. 08, 2014 Rise Set
Actual Time 5:36 AM CDT 8:02 PM CDT
Civil Twilight 5:04 AM CDT 8:34 PM CDT
Nautical Twilight 4:24 AM CDT 9:14 PM CDT
Astronomical Twilight 3:39 AM CDT 10:00 PM CDT
Moon 1:52 PM CDT (5/8) 2:18 AM CDT (5/8)
Length of Visible Light 15h 30m
Length of Day
14h 26m
Waxing Gibbous, 65% of the Moon is Illuminated
May 8
Waxing Gibbous
May 14
Full
May 21
Last Quarter
May 28
New
Jun 5
First Quarter

Hourly Weather History & Observations

Time (CDT) Temp. Windchill Dew Point Humidity Pressure Visibility Wind Dir Wind Speed Gust Speed Precip Events Conditions
12:10 AM 46.4 °F 43.5 °F 42.8 °F 87% 29.85 in 7.0 mi East 5.8 mph - N/A   Clear
12:30 AM 46.4 °F 45.2 °F 42.8 °F 87% 29.85 in 7.0 mi East 3.5 mph - N/A   Clear
12:50 AM 44.6 °F 42.2 °F 42.8 °F 93% 29.86 in 7.0 mi East 4.6 mph - N/A   Clear
1:10 AM 44.6 °F 42.2 °F 42.8 °F 93% 29.85 in 7.0 mi ENE 4.6 mph - N/A   Clear
1:30 AM 44.6 °F 42.2 °F 41.0 °F 87% 29.84 in 5.0 mi ENE 4.6 mph - N/A   Clear
1:50 AM 44.6 °F 42.2 °F 41.0 °F 87% 29.84 in 5.0 mi ENE 4.6 mph - N/A   Clear
2:10 AM 44.6 °F 42.2 °F 41.0 °F 87% 29.83 in 5.0 mi East 4.6 mph - N/A   Clear
2:30 AM 44.6 °F 41.4 °F 41.0 °F 87% 29.83 in 5.0 mi East 5.8 mph - N/A   Clear
2:50 AM 44.6 °F 43.1 °F 41.0 °F 87% 29.83 in 5.0 mi East 3.5 mph - N/A   Clear
3:10 AM 44.6 °F 43.1 °F 41.0 °F 87% 29.81 in 5.0 mi East 3.5 mph - N/A   Clear
3:30 AM 44.6 °F - 41.0 °F 87% 29.81 in 5.0 mi Calm Calm - N/A   Clear
3:50 AM 44.6 °F 42.2 °F 41.0 °F 87% 29.80 in 5.0 mi ESE 4.6 mph - N/A   Clear
4:10 AM 44.6 °F 42.2 °F 41.0 °F 87% 29.79 in 5.0 mi ESE 4.6 mph - N/A   Clear
4:30 AM 44.6 °F - 41.0 °F 87% 29.80 in 5.0 mi Calm Calm - N/A   Clear
4:50 AM 44.6 °F - 41.0 °F 87% 29.81 in 5.0 mi Calm Calm - N/A   Clear
5:10 AM 42.8 °F - 41.0 °F 93% 29.79 in 5.0 mi Calm Calm - N/A   Clear
5:30 AM 44.6 °F - 41.0 °F 87% 29.80 in 5.0 mi Calm Calm - N/A   Clear
5:50 AM 44.6 °F - 41.0 °F 87% 29.80 in 3.0 mi Calm Calm - N/A   Clear
6:10 AM 42.8 °F - 41.0 °F 93% 29.79 in 3.0 mi Calm Calm - N/A   Clear
6:30 AM 44.6 °F - 42.8 °F 93% 29.80 in 3.0 mi Calm Calm - N/A   Clear
6:50 AM 44.6 °F - 42.8 °F 93% 29.80 in 4.0 mi Calm Calm - N/A   Clear
7:10 AM 46.4 °F 45.2 °F 42.8 °F 87% 29.80 in 4.0 mi NNE 3.5 mph - N/A   Clear
7:30 AM 48.2 °F - 42.8 °F 82% 29.81 in 5.0 mi ENE 3.5 mph - N/A   Haze
7:50 AM 50.0 °F - 44.6 °F 82% 29.81 in 7.0 mi ESE 4.6 mph - N/A   Clear
8:10 AM 51.8 °F - 44.6 °F 76% 29.81 in 7.0 mi Calm Calm - N/A   Clear
8:30 AM 51.8 °F - 46.4 °F 82% 29.83 in 7.0 mi Calm Calm - N/A   Clear
8:50 AM 55.4 °F - 48.2 °F 77% 29.82 in 7.0 mi Calm Calm - N/A   Clear
9:10 AM 59.0 °F - 50.0 °F 72% 29.82 in 7.0 mi Calm Calm - N/A   Clear
9:50 AM 62.6 °F - 51.8 °F 68% 29.82 in 10.0 mi Calm Calm - N/A   Clear
10:10 AM 64.4 °F - 51.8 °F 64% 29.83 in 10.0 mi Calm Calm - N/A   Clear
10:30 AM 64.4 °F - 53.6 °F 68% 29.81 in 10.0 mi NE 5.8 mph - N/A   Clear
10:50 AM 64.4 °F - 53.6 °F 68% 29.82 in 10.0 mi ENE 4.6 mph - N/A   Scattered Clouds
11:10 AM 66.2 °F - 55.4 °F 68% 29.82 in 10.0 mi ENE 3.5 mph - N/A   Scattered Clouds
11:30 AM 68.0 °F - 55.4 °F 64% 29.81 in 10.0 mi Calm Calm - N/A   Clear
11:50 AM 69.8 °F - 55.4 °F 60% 29.81 in 10.0 mi East 3.5 mph - N/A   Clear
12:10 PM 69.8 °F - 55.4 °F 60% 29.82 in 10.0 mi ESE 4.6 mph - N/A   Mostly Cloudy
12:30 PM 71.6 °F - 59.0 °F 64% 29.82 in 10.0 mi ESE 4.6 mph - N/A   Scattered Clouds
12:50 PM 73.4 °F - 57.2 °F 57% 29.81 in 10.0 mi ESE 6.9 mph - N/A   Clear
1:10 PM 73.4 °F - 57.2 °F 57% 29.82 in 10.0 mi SE 8.1 mph - N/A   Scattered Clouds
1:30 PM 73.4 °F - 57.2 °F 57% 29.83 in 10.0 mi SSE 8.1 mph - N/A   Mostly Cloudy
1:50 PM 73.4 °F - 55.4 °F 53% 29.82 in 10.0 mi SSE 4.6 mph - N/A   Mostly Cloudy
2:10 PM 73.4 °F - 55.4 °F 53% 29.79 in 10.0 mi NE 9.2 mph - N/A   Scattered Clouds
2:30 PM 71.6 °F - 55.4 °F 57% 29.83 in 10.0 mi SSE 4.6 mph - N/A   Clear
2:50 PM 71.6 °F - 57.2 °F 60% 29.80 in 10.0 mi ESE 5.8 mph - N/A   Clear
3:10 PM 73.4 °F - 59.0 °F 61% 29.78 in 10.0 mi ESE 8.1 mph - N/A   Clear
3:30 PM 73.4 °F - 59.0 °F 61% 29.78 in 10.0 mi ESE 6.9 mph - N/A   Clear
3:50 PM 75.2 °F - 59.0 °F 57% 29.77 in 10.0 mi ESE 6.9 mph - N/A   Clear
4:10 PM 77.0 °F - 59.0 °F 54% 29.76 in 10.0 mi SE 9.2 mph - N/A   Clear
4:30 PM 77.0 °F - 59.0 °F 54% 29.75 in 10.0 mi SE 13.8 mph 20.7 mph N/A   Clear
4:50 PM 77.0 °F - 59.0 °F 54% 29.75 in 10.0 mi SE 11.5 mph 17.3 mph N/A   Clear
5:10 PM 78.8 °F - 59.0 °F 51% 29.74 in 10.0 mi ESE 11.5 mph - N/A   Clear
5:30 PM 77.0 °F - 59.0 °F 54% 29.74 in 10.0 mi SE 10.4 mph - N/A   Scattered Clouds
5:50 PM 77.0 °F - 59.0 °F 54% 29.74 in 10.0 mi ESE 6.9 mph - N/A   Scattered Clouds
6:10 PM 75.2 °F - 59.0 °F 57% 29.74 in 10.0 mi ESE 6.9 mph - N/A   Clear
6:30 PM 75.2 °F - 59.0 °F 57% 29.73 in 10.0 mi ESE 5.8 mph - N/A   Clear
6:50 PM 73.4 °F - 59.0 °F 61% 29.73 in 10.0 mi ESE 6.9 mph - N/A   Scattered Clouds
7:10 PM 73.4 °F - 55.4 °F 53% 29.73 in 10.0 mi SE 5.8 mph - N/A   Scattered Clouds
7:30 PM 73.4 °F - 55.4 °F 53% 29.72 in 10.0 mi SE 5.8 mph - N/A   Mostly Cloudy
7:50 PM 73.4 °F - 55.4 °F 53% 29.72 in 10.0 mi SSW 5.8 mph - N/A   Mostly Cloudy
8:10 PM 73.4 °F - 55.4 °F 53% 29.71 in 10.0 mi South 3.5 mph - N/A   Scattered Clouds
8:30 PM 71.6 °F - 55.4 °F 57% 29.72 in 10.0 mi SSE 4.6 mph - N/A   Clear
8:50 PM 71.6 °F - 55.4 °F 57% 29.72 in 10.0 mi SSE 4.6 mph - N/A   Clear
9:10 PM 73.4 °F - 55.4 °F 53% 29.73 in 10.0 mi South 5.8 mph - N/A   Clear
9:30 PM 73.4 °F - 53.6 °F 50% 29.73 in 10.0 mi SSW 5.8 mph - N/A   Scattered Clouds
9:50 PM 75.2 °F - 53.6 °F 47% 29.73 in 10.0 mi South 5.8 mph - N/A   Clear
10:10 PM 73.4 °F - 53.6 °F 50% 29.73 in 10.0 mi South 6.9 mph - N/A   Clear
10:30 PM 73.4 °F - 53.6 °F 50% 29.72 in 10.0 mi SSW 6.9 mph - N/A   Clear
10:50 PM 73.4 °F - 55.4 °F 53% 29.72 in 10.0 mi South 8.1 mph - N/A   Clear
11:10 PM 73.4 °F - 55.4 °F 53% 29.72 in 10.0 mi South 10.4 mph 18.4 mph N/A   Scattered Clouds
11:30 PM 73.4 °F - 53.6 °F 50% 29.72 in 10.0 mi SSW 16.1 mph 21.9 mph N/A   Scattered Clouds
11:50 PM 73.4 °F - 51.8 °F 47% 29.72 in 10.0 mi SSW 15.0 mph 26.5 mph N/A   Scattered Clouds